Kailua Kona, HI

10:10 AM HST on July 27, 2016 (GMT -1000)
Kona International At Keahole

Weather History for PHKO - February, 2013

Change the Weather History Date:

Sunday, February 17, 2013

  Actual Average Record
Temperature  
Mean Temperature 74 °F -  
Max Temperature 80 °F 79 °F 87 °F (1981)
Min Temperature 68 °F 66 °F 60 °F (1986)
Cooling Degree Days 9    
Growing Degree Days 24 (Base 50)    
Moisture  
Dew Point 61 °F    
Average Humidity 62    
Maximum Humidity 76    
Minimum Humidity 52    
Precipitation  
Precipitation 0.01 in - - ()
Sea Level Pressure  
Sea Level Pressure 30.03 in    
Wind  
Wind Speed 6 mph (SE)    
Max Wind Speed 15 mph    
Max Gust Speed -    
Visibility 10 miles    
Events      
Averages and records for this station are not official NWS values.
T = Trace of Precipitation, MM = Missing Value Source: NWS Daily Summary

Daily Weather History Graph

Daily Weather History Graph

Search for Another Location

Airport or City:

Trip Planner

Search our weather history database for the weather conditions in past years. The results will help you decide how hot, cold, wet, or windy it might be!

Date:

Astronomy

Feb. 17, 2013 Rise Set
Actual Time 6:51 AM HST 6:24 PM HST
Civil Twilight 6:29 AM HST 6:47 PM HST
Nautical Twilight 6:03 AM HST 7:13 PM HST
Astronomical Twilight 5:37 AM HST 7:38 PM HST
Moon 11:55 AM HST (2/17) 12:29 AM HST (2/17)
Length of Visible Light 12h 17m
Length of Day
11h 33m
Waxing Crescent, 51% of the Moon is Illuminated
Feb 17
Waxing Crescent
Feb 25
Full
Mar 4
Last Quarter
Mar 11
New
Mar 19
First Quarter

Hourly Weather History & Observations

Time (HST) Temp. Heat Index Dew Point Humidity Pressure Visibility Wind Dir Wind Speed Gust Speed Precip Events Conditions
12:53 AM 71.1 °F - 59.0 °F 66% 30.05 in 10.0 mi North 6.9 mph - N/A   Mostly Cloudy
1:53 AM 71.1 °F - 60.1 °F 68% 30.04 in 10.0 mi ENE 4.6 mph - N/A   Scattered Clouds
2:53 AM 70.0 °F - 60.1 °F 71% 30.02 in 10.0 mi ENE 3.5 mph - N/A   Mostly Cloudy
3:53 AM 70.0 °F - 60.1 °F 71% 29.99 in 10.0 mi East 4.6 mph - N/A   Clear
4:53 AM 68.0 °F - 60.1 °F 76% 30.00 in 10.0 mi ENE 3.5 mph - 0.01 in   Clear
5:53 AM 68.0 °F - 60.1 °F 76% 30.01 in 10.0 mi East 4.6 mph - N/A   Clear
6:53 AM 69.1 °F - 60.1 °F 73% 30.02 in 10.0 mi SE 8.1 mph - N/A   Clear
7:53 AM 72.0 °F - 60.1 °F 66% 30.06 in 10.0 mi ESE 5.8 mph - N/A   Clear
8:53 AM 75.9 °F - 61.0 °F 60% 30.07 in 10.0 mi Calm Calm - N/A   Clear
9:53 AM 78.1 °F - 62.1 °F 58% 30.08 in 10.0 mi West 5.8 mph - N/A   Clear
10:53 AM 78.1 °F - 62.1 °F 58% 30.07 in 10.0 mi West 6.9 mph - N/A   Clear
11:53 AM 79.0 °F - 61.0 °F 54% 30.05 in 10.0 mi SW 8.1 mph - N/A   Partly Cloudy
12:53 PM 80.1 °F 81.1 °F 61.0 °F 52% 30.02 in 10.0 mi SW 10.4 mph - N/A   Partly Cloudy
1:53 PM 79.0 °F - 62.1 °F 56% 30.00 in 10.0 mi SSW 10.4 mph - N/A   Scattered Clouds
2:53 PM 80.1 °F 81.2 °F 62.1 °F 54% 29.99 in 10.0 mi South 9.2 mph - N/A   Clear
3:53 PM 79.0 °F - 62.1 °F 56% 29.98 in 10.0 mi South 11.5 mph - N/A   Partly Cloudy
4:53 PM 79.0 °F - 60.1 °F 52% 29.99 in 10.0 mi South 11.5 mph - N/A   Mostly Cloudy
5:53 PM 78.1 °F - 61.0 °F 56% 30.01 in 10.0 mi SSE 15.0 mph - N/A   Overcast
7:53 PM 75.9 °F - 63.0 °F 64% 30.03 in 10.0 mi NW 5.8 mph - N/A   Clear
8:53 PM 73.9 °F - 59.0 °F 59% 30.04 in 10.0 mi ESE 6.9 mph - N/A   Clear
9:53 PM 73.0 °F - 60.1 °F 64% 30.07 in 10.0 mi SE 8.1 mph - N/A   Clear
10:53 PM 72.0 °F - 60.1 °F 66% 30.07 in 10.0 mi NE 5.8 mph - N/A   Clear
11:53 PM 73.0 °F - 57.9 °F 59% 30.05 in 10.0 mi SE 3.5 mph - N/A   Clear